星链-30437 (STARLINK-30437 )

导读

STARLINK-30437是美国SpaceX公司星链星座的组网卫星,于2023年10月9日发射入轨。作为星链低轨互联网星座的组成部分,它运行在近地轨道,属于星链二期组网卫星,承载全球宽带互联网接入服务。星链星座通过大量小卫星组网,可为偏远地区提供高速低时延网络,该卫星延续星链标准化设计,配备氪离子推进与自主避碰系统,服务全球卫星互联网覆盖。

Basic Information
目录编号:
58036
目录名称:
STARLINK-30437
国际标识:
2023-156J
轨道中心:
EARTH
卫星名称:
星链-30437
卫星全名:
星链-30437 (STARLINK-30437 )
卫星状态:
在轨 (已飞行1061 天)
发射日期:
2023-10-09 UTC
国别 :
美国 (US)
星等 :
--
Orbit Information
数据来源 国际轨道数据
星历时间: 2026-09-04T14:23:42+0800
13小时前
查看轨道信息
半长轴: 6848.866km
偏心率: 0.0001324
轨道倾角: 53.161°
近地点辐角 100.912°
升交点赤经 328.419°
平近点角 259.203°
近地点: 469.822km
远地点: 471.636km
周期: 94.013分钟
每日圈数: 15.317039
Detailed Information
固有亮度:
5
最大亮度:
0.3
卫星平台:
Starlink v2.0 mini
覆盖范围:
全球
运营商:
太空探索技术公司
运营商所在国:
美国
制造商(研发单位):
太空探索技术公司
制造商所在国:
美国
使用方式:
暂无
Satellite Introduction
星链(Starlink)计划是由太空探索技术公司(SpaceX)提出的一个巨型低轨卫星互联网星座项目,计划在2019年至2024年间在太空搭建由约1.2万颗卫星组成的“星链”网络,其中1584颗将部署在地球上空550千米处的近地轨道,并从2020年开始工作。该卫星仍在工作。
2D Orbit Map
3D Orbit Map
Orbit Altitude Analysis Chart
Orbit Inclination Analysis Chart
Orbit Comprehensive Analysis Chart
View Comprehensive Chart
Conjunction Data List
Event ID Objects TCA Miss Dist (km) Collision Risk Probability Collision Risk Index (CRI) Action
CDM_260906-235005-803606-779721
2026-09-06T
23:50:03+0000
3.000 km
极远距离
1.251134E-6 低风险 0.37
CDM_260905-075505-803606-796821
2026-09-05T
07:55:50+0000
2.984 km
极远距离
1.042854E-6 低风险 0.35